Terminal Aerodrome Forecast
Issued by NWS Charleston, WV

Current Version | Previous Version | Graphics & Text | Print | Product List | Glossary On
Versions: 1 2 3 4 5 6 7 8 9 10 11 12 13 14 15 16 17 18 19 20 21 22 23 24 25 26
467
FTUS41 KRLX 232321
TAFCRW
TAF
KCRW 232321Z 2400/2424 VRB03KT P6SM SKC
     FM240700 00000KT 3SM BR FEW001 FEW250
     FM240900 00000KT 1SM BR SCT001 SCT200
     FM241200 00000KT 4SM BR FEW001 SCT200
     FM241300 VRB03KT P6SM FEW080 SCT150
     FM241600 19005KT P6SM SCT080=

USA.gov is the U.S. government's official web portal to all federal, state and local government web resources and services.